017  
NZUS99 KSGF 192107  
HRRSGF  
 
HOURLY WEATHER  
NATIONAL WEATHER SERVICE SPRINGFIELD MO  
400 PM CDT FRI JUL 19 2019  
   
.....SGF CWA...
 
 
 
CITY SKY/WX TMP DP RH WIND PRES REMARKS  
SPRINGFIELD MOSUNNY 95 74 50 S16G24 29.93F HX 105  
JOPLIN MOSUNNY 93 76 57 S18G24 29.91S HX 105  
WEST PLAINS SUNNY 91 74 57 SW9 30.00F HX 100  
ROLLA MOSUNNY 92 75 57 S12 29.95F HX 103  
OSAGE BEACH MOSUNNY 96 76 52 SW14 29.91F HX 109  
BRANSON MOSUNNY 93 73 52 S8 29.99S HX 102  
   
.....SURROUNDING SGF CWA...
 
 
 
CITY SKY/WX TMP DP RH WIND PRES REMARKS  
CHANUTE SUNNY 97 75 49 S17G26 29.86F HX 109  
PARSONS SUNNY 96 76 52 S13G22 29.87F HX 109  
COFFEYVILLE SUNNY 97 73 45 S16G29 29.85F HX 107  
EMPORIA SUNNY 96 76 52 S21G30 29.82S HX 109  
GROVE OK SUNNY 95 70 43 S17 29.92F HX 101  
ROGERS AR SUNNY 93 71 48 SW13 29.98F HX 100  
SILOAM SPRINGS MOSUNNY 91 74 57 MISG 29.97S HX 100  
HARRISON AR MOSUNNY 90 72 55 S8 29.99F HX 97  
NEAR YELLVILLE SUNNY 93 73 52 SW8 29.96F HX 102  
   
.....KANSAS AND MISSOURI...
 
 
 
CITY SKY/WX TMP DP RH WIND PRES REMARKS  
KANSAS CTY INT SUNNY 96 77 54 S16G26 29.82F HX 111  
DOWNTOWN KC SUNNY 97 76 50 S17 29.81F HX 110  
COLUMBIA SUNNY 95 76 53 S13 29.89F HX 108  
SEDALIA SUNNY 91 76 61 S16 29.89F HX 103  
ST JOSEPH SUNNY 95 77 55 S15G23 29.78F HX 109  
ST LOUIS MOSUNNY 96 73 47 S13G24 29.91F HX 105  
SPIRIT OF STL MOSUNNY 95 75 52 S9 29.89F HX 107  
KIRKSVILLE SUNNY 96 75 50 S14G23 29.84F HX 108  
WICHITA SUNNY 101 70 36 S23G33 29.80F HX 108  
TOPEKA SUNNY 97 76 50 S16G25 29.79F HX 110  
OLATHE SUNNY 93 77 59 S12G24 29.84F HX 107  
   
.....TENNESSEE...
 
 
 
CITY SKY/WX TMP DP RH WIND PRES REMARKS  
MEMPHIS FAIR 91 76 61 SW9 30.01S HX 103  
NASHVILLE PTSUNNY 93 70 46 VRB5 30.02S HX 99  
   
.....ARKANSAS....
 
 
 
CITY SKY/WX TMP DP RH WIND PRES REMARKS  
FAYETTEVILLE SUNNY 91 73 55 S15 29.97F HX 99  
FT SMITH SUNNY 96 73 47 S9 29.92F HX 105  
LITTLE ROCK MOSUNNY 92 74 55 S12 29.97F HX 101  
   
.....OKLAHOMA....
 
 
 
CITY SKY/WX TMP DP RH WIND PRES REMARKS  
TULSA MOSUNNY 98 74 45 S13G23 29.85F HX 109  
PONCA CITY SUNNY 99 70 38 S12G25 29.82F HX 106  
MCALESTER SUNNY 93 72 50 S12 29.93F HX 101  
OKLAHOMA CITY SUNNY 96 67 38 S17G26 29.88F HX 100  
   
.....IOWA.........
 
 
 
CITY SKY/WX TMP DP RH WIND PRES REMARKS  
DES MOINES SUNNY 95 77 55 S15G26 29.73F HX 109  
QUAD CITIES FAIR 95 78 58 S13 29.79F HX 111  
   
.....ILLINOIS.....
 
 
 
CITY SKY/WX TMP DP RH WIND PRES REMARKS  
QUINCY SUNNY 93 77 59 S14 29.85F HX 107  
CHICAGO PTSUNNY 92 76 59 S14 29.81F HX 104  
 
 
 
CLICK HERE TO GO TO PREVIOUS BULLETINS.

The Nexlab MO Page
The Nexlab KS Page Main Text Page